• In Belgium
  • List of Countries
  • For 7 days
  • Water Temperature
  • Satellite Maps
  • Weather Map
  • Weather Widgets
  • user-avatar
    Login

    Hourly Weather Irvington

    Today, 19 February, Monday

    Time Temperature Precipitation Wind Pressure Humidity
    00:00 +1°C° 0 mm 1 mps 770 mmHg 78%
    01:00 +1°C° 0 mm 1 mps 770 mmHg 79%
    02:00 -1°C° 0 mm 2 mps 770 mmHg 80%
    03:00 -1°C° 0 mm 2 mps 770 mmHg 82%
    04:00 -1°C° 0 mm 2 mps 770 mmHg 83%
    05:00 -1°C° 0 mm 2 mps 770 mmHg 85%
    06:00 -1°C° 0 mm 2 mps 769 mmHg 86%
    07:00 -1°C° 0 mm 2 mps 769 mmHg 87%
    08:00 +1°C° 0 mm 3 mps 769 mmHg 82%
    09:00 +3°C° 0 mm 4 mps 769 mmHg 77%
    10:00 +5°C° 0 mm 4 mps 769 mmHg 72%
    11:00 +6°C° 0 mm 4 mps 769 mmHg 73%
    12:00 +7°C° 0 mm 3 mps 768 mmHg 75%
    13:00 +8°C° 0 mm 3 mps 768 mmHg 77%
    14:00 +8°C° 0 mm 3 mps 767 mmHg 79%
    15:00 +7°C° 0 mm 4 mps 766 mmHg 81%
    16:00 +7°C° 0 mm 4 mps 766 mmHg 83%
    17:00 +7°C° 0.4 mm 4 mps 766 mmHg 87%
    18:00 +7°C° 0.4 mm 3 mps 766 mmHg 90%
    19:00 +7°C° 0.4 mm 3 mps 766 mmHg 94%
    20:00 +7°C° 0.3 mm 3 mps 766 mmHg 95%
    21:00 +8°C° 0.3 mm 3 mps 765 mmHg 95%
    22:00 +7°C° 0.3 mm 4 mps 765 mmHg 96%
    23:00 +7°C° 0 mm 4 mps 765 mmHg 97%

    Tomorrow, 20 February, Tuesday

    Time Temperature Precipitation Wind Pressure Humidity
    00:00 +7°C° 0 mm 4 mps 765 mmHg 97%
    01:00 +8°C° 0 mm 4 mps 765 mmHg 97%
    02:00 +8°C° 0 mm 4 mps 765 mmHg 97%
    03:00 +8°C° 0 mm 4 mps 765 mmHg 97%
    04:00 +10°C° 0 mm 4 mps 764 mmHg 97%
    05:00 +10°C° 0 mm 4 mps 764 mmHg 97%
    06:00 +10°C° 0 mm 4 mps 765 mmHg 97%
    07:00 +10°C° 0 mm 4 mps 765 mmHg 97%
    08:00 +11°C° 0 mm 4 mps 765 mmHg 94%
    09:00 +12°C° 0 mm 4 mps 765 mmHg 92%
    10:00 +13°C° 0 mm 5 mps 765 mmHg 90%
    11:00 +14°C° 0 mm 5 mps 765 mmHg 86%
    12:00 +16°C° 0 mm 5 mps 764 mmHg 83%
    13:00 +17°C° 0 mm 5 mps 764 mmHg 79%
    14:00 +19°C° 0 mm 5 mps 764 mmHg 79%
    15:00 +19°C° 0 mm 4 mps 764 mmHg 78%
    16:00 +20°C° 0 mm 4 mps 763 mmHg 78%
    17:00 +19°C° 0 mm 4 mps 764 mmHg 82%
    18:00 +18°C° 0 mm 4 mps 764 mmHg 87%
    19:00 +17°C° 0 mm 4 mps 764 mmHg 92%
    20:00 +17°C° 0 mm 4 mps 765 mmHg 93%
    21:00 +15°C° 0 mm 4 mps 765 mmHg 93%
    22:00 +15°C° 0 mm 4 mps 765 mmHg 94%
    23:00 +15°C° 0 mm 4 mps 765 mmHg 94%

    Day after tomorrow, 21 February, Wednesday

    Time Temperature Precipitation Wind Pressure Humidity
    00:00 +15°C° 0 mm 4 mps 765 mmHg 95%
    01:00 +15°C° 0 mm 4 mps 764 mmHg 95%
    02:00 +14°C° 0 mm 4 mps 764 mmHg 95%
    03:00 +14°C° 0 mm 4 mps 764 mmHg 94%
    04:00 +14°C° 0 mm 4 mps 763 mmHg 94%
    05:00 +14°C° 0 mm 4 mps 763 mmHg 94%
    06:00 +14°C° 0 mm 4 mps 764 mmHg 95%
    07:00 +14°C° 0 mm 4 mps 764 mmHg 95%
    08:00 +15°C° 0 mm 5 mps 764 mmHg 92%
    09:00 +15°C° 0 mm 5 mps 764 mmHg 90%
    10:00 +16°C° 0 mm 5 mps 764 mmHg 87%
    11:00 +17°C° 0 mm 5 mps 763 mmHg 85%
    12:00 +19°C° 0 mm 5 mps 763 mmHg 82%
    13:00 +19°C° 0 mm 5 mps 763 mmHg 80%
    14:00 +20°C° 0 mm 5 mps 762 mmHg 79%
    15:00 +20°C° 0 mm 4 mps 762 mmHg 78%
    16:00 +21°C° 0 mm 4 mps 761 mmHg 78%
    17:00 +20°C° 0 mm 4 mps 762 mmHg 81%
    18:00 +20°C° 0 mm 4 mps 762 mmHg 84%
    19:00 +19°C° 0 mm 4 mps 762 mmHg 88%
    20:00 +19°C° 0.4 mm 4 mps 762 mmHg 89%
    21:00 +18°C° 0.4 mm 4 mps 763 mmHg 90%
    22:00 +18°C° 0.4 mm 4 mps 763 mmHg 91%
    23:00 +15°C° 0.1 mm 4 mps 764 mmHg 84%

    22 February, Thursday

    Time Temperature Precipitation Wind Pressure Humidity
    00:00 +14°C° 0.1 mm 4 mps 764 mmHg 78%
    01:00 +12°C° 0.1 mm 4 mps 765 mmHg 71%
    02:00 +11°C° 0 mm 4 mps 765 mmHg 70%
    03:00 +10°C° 0 mm 4 mps 766 mmHg 70%
    04:00 +8°C° 0 mm 4 mps 766 mmHg 70%
    05:00 +8°C° 0 mm 4 mps 767 mmHg 69%
    06:00 +8°C° 0 mm 4 mps 768 mmHg 69%
    07:00 +8°C° 0 mm 4 mps 768 mmHg 69%
    08:00 +7°C° 0.4 mm 4 mps 769 mmHg 71%
    09:00 +8°C° 0.4 mm 3 mps 770 mmHg 73%
    10:00 +7°C° 0.4 mm 3 mps 770 mmHg 75%
    11:00 +7°C° 0.6 mm 3 mps 770 mmHg 75%
    12:00 +7°C° 0.6 mm 3 mps 770 mmHg 76%
    13:00 +7°C° 0.6 mm 3 mps 771 mmHg 76%
    14:00 +7°C° 0.1 mm 2 mps 771 mmHg 73%
    15:00 +8°C° 0.1 mm 2 mps 771 mmHg 71%
    16:00 +8°C° 0.1 mm 2 mps 771 mmHg 68%
    17:00 +7°C° 0 mm 2 mps 771 mmHg 70%
    18:00 +7°C° 0 mm 2 mps 772 mmHg 71%
    19:00 +6°C° 0 mm 2 mps 772 mmHg 73%
    20:00 +5°C° 0 mm 2 mps 773 mmHg 72%
    21:00 +5°C° 0 mm 2 mps 773 mmHg 71%
    22:00 +4°C° 0 mm 2 mps 773 mmHg 70%
    23:00 +4°C° 0 mm 2 mps 773 mmHg 68%

    23 February, Friday

    Time Temperature Precipitation Wind Pressure Humidity
    00:00 +4°C° 0 mm 2 mps 773 mmHg 66%
    01:00 +3°C° 0 mm 2 mps 773 mmHg 64%
    02:00 +3°C° 0 mm 2 mps 773 mmHg 64%
    03:00 +3°C° 0 mm 2 mps 773 mmHg 63%
    04:00 +2°C° 0 mm 2 mps 772 mmHg 62%
    05:00 +2°C° 0 mm 2 mps 773 mmHg 65%
    06:00 +2°C° 0 mm 2 mps 773 mmHg 68%
    07:00 +2°C° 0 mm 2 mps 773 mmHg 72%
    08:00 +2°C° 0 mm 3 mps 773 mmHg 65%
    09:00 +3°C° 0 mm 3 mps 772 mmHg 58%
    10:00 +4°C° 0 mm 4 mps 772 mmHg 52%
    11:00 +4°C° 0 mm 4 mps 772 mmHg 49%
    12:00 +4°C° 0 mm 4 mps 771 mmHg 46%
    13:00 +4°C° 0 mm 4 mps 770 mmHg 43%
    14:00 +4°C° 0 mm 4 mps 770 mmHg 51%
    15:00 +4°C° 0 mm 4 mps 769 mmHg 58%
    16:00 +4°C° 0 mm 4 mps 768 mmHg 66%
    17:00 +4°C° 0.6 mm 4 mps 768 mmHg 72%
    18:00 +4°C° 0.6 mm 4 mps 767 mmHg 78%
    19:00 +3°C° 0.6 mm 5 mps 766 mmHg 83%
    20:00 +4°C° 1.5 mm 4 mps 765 mmHg 87%
    21:00 +4°C° 1.5 mm 4 mps 764 mmHg 90%
    22:00 +4°C° 1.5 mm 3 mps 763 mmHg 94%
    23:00 +5°C° 1.5 mm 2 mps 762 mmHg 94%

    24 February, Saturday

    Time Temperature Precipitation Wind Pressure Humidity
    00:00 +5°C° 1.5 mm 2 mps 761 mmHg 95%
    01:00 +7°C° 1.5 mm 1 mps 760 mmHg 96%
    02:00 +7°C° 0 mm 1 mps 759 mmHg 96%
    03:00 +7°C° 0 mm 1 mps 758 mmHg 96%
    04:00 +7°C° 0 mm 1 mps 758 mmHg 95%
    05:00 +7°C° 0 mm 1 mps 758 mmHg 96%
    06:00 +7°C° 0 mm 1 mps 758 mmHg 96%
    07:00 +7°C° 0 mm 1 mps 758 mmHg 97%
    08:00 +7°C° 0.1 mm 2 mps 757 mmHg 95%
    09:00 +8°C° 0.1 mm 2 mps 757 mmHg 92%
    10:00 +9°C° 0.1 mm 2 mps 757 mmHg 90%
    11:00 +10°C° 0.4 mm 2 mps 756 mmHg 90%
    12:00 +11°C° 0.4 mm 1 mps 755 mmHg 90%
    13:00 +11°C° 0.4 mm 1 mps 754 mmHg 91%
    14:00 +12°C° 0.8 mm 1 mps 754 mmHg 92%
    15:00 +12°C° 0.8 mm 1 mps 754 mmHg 93%
    16:00 +13°C° 0.8 mm 1 mps 753 mmHg 94%
    17:00 +12°C° 0.6 mm 2 mps 753 mmHg 95%
    18:00 +12°C° 0.6 mm 2 mps 753 mmHg 96%
    19:00 +12°C° 0.6 mm 2 mps 753 mmHg 97%
    20:00 +12°C° 0 mm 2 mps 753 mmHg 97%
    21:00 +12°C° 0 mm 1 mps 753 mmHg 97%
    22:00 +12°C° 0 mm 1 mps 752 mmHg 97%
    23:00 +12°C° 0 mm 1 mps 752 mmHg 96%
    Show more